Flag for Brazil Weather past 2 weeks in Belém, Para, Brazil

Now
72 °F

Fog.


Feels Like: 65 °F
Forecast: 73 / 89 °F
Wind: 5 mph from Southeast

Location: Belem Aeroporto

Current Time: Sep 19, 2014 at 7:04:13 AM

Latest Report: Sep 19, 2014 at 6:00 AM


Visibility: 3 mi

Pressure: 29.89 "Hg

Humidity: 100%

Dew point: 72 °F

Location of BelémLocation

Historic Weather in Belém — Graph

°F

Belém temperature yesterday

Maximum temperature yesterday: 88 °F (at 1:00 PM)
Minimum temperature yesterday: 36 °F (at 4:00 PM)
Average temperature yesterday: 77 °F

Past Weeks' High & Low Weather Summary

 TemperatureHumidityPressure
High91 °F (Sep 8, 2:00 PM)100% (Sep 4, 6:00 AM)30.01 "Hg (Sep 4, 6:00 AM)
Low36 °F (Sep 18, 4:00 PM)49% (Sep 8, 2:00 PM)29.77 "Hg (Sep 11, 3:00 PM)
Average79 °F82%29.88 "Hg
* Reported Sep 4 6:00 AM — Sep 19 6:00 AM, Belém, Weather by CustomWeather, © 2014

Note: Actual official high and low records may vary slightly from our data, if they occured in-between our weather recording intervals... More about our weather records

Advertising

Belém weather history for previous 24 hours

 ConditionsComfort  
Time TempWeatherWind HumidityBarometerVisibility
6:00 AM
Sep 19
72 °FFog.5 mph100%29.89 "Hg3 mi
5:00 AM73 °FClear.7 mph100%29.89 "Hg10 mi
4:00 AM73 °FClear.2 mph100%29.86 "Hg10 mi
3:00 AM73 °FClear.3 mph100%29.86 "Hg10 mi
2:00 AM73 °FClear.5 mph100%29.86 "Hg10 mi
1:00 AM75 °FClear.2 mph94%29.89 "Hg10 mi
12:00 AM75 °FClear.5 mph94%29.89 "Hg10 mi
11:00 PM
Sep 18
77 °FClear.7 mph89%29.89 "Hg10 mi
10:00 PM77 °FClear.5 mph89%29.89 "Hg10 mi
9:00 PM77 °FClear.5 mph94%29.89 "Hg10 mi
8:00 PM75 °FPassing clouds.2 mph100%29.86 "HgN/A
7:00 PM77 °FPassing clouds.2 mph94%29.83 "HgN/A
6:00 PM77 °FBroken clouds.3 mph94%29.83 "HgN/A
5:00 PMN/ALight rain.5 mphN/AN/AN/A
4:09 PM73 °FThunderstorms. Broken clouds.9 mph100%29.83 "Hg6 mi
4:00 PM36 °FStrong thunderstorms. Mostly cloudy.18 mph100%29.83 "Hg1 mi
3:00 PMN/ALight rain.9 mphN/AN/AN/A
2:06 PMN/AHeavy rain.12 mphN/AN/A1 mi
2:00 PM86 °FScattered showers. Partly sunny.10 mph62%29.86 "HgN/A
1:00 PM88 °FPartly sunny.7 mph55%29.89 "HgN/A
12:00 PM86 °FPartly sunny.10 mph59%29.92 "HgN/A
11:00 AM86 °FPartly sunny.12 mph59%29.95 "HgN/A
10:00 AM82 °FPartly sunny.8 mph70%29.89 "HgN/A
9:00 AM82 °FScattered clouds.10 mph70%29.92 "HgN/A
8:00 AM79 °FPassing clouds.6 mph84%29.92 "HgN/A
7:00 AM75 °FPassing clouds.3 mph100%29.89 "HgN/A
Weather by CustomWeather, © 2014

See weather overviewHow to use our weather pages